Home   Weather   Kyrenia   Past weeks

Flag for Cyprus Past Weather in Kyrenia, Northern Cyprus, Cyprus — Yesterday and Last 2 Weeks

Now
48 °F

Passing clouds.


Feels Like: 45 °F
Forecast: 44 / 59 °F
Wind: 7 mph from Northwest

Location: Ercan

Current Time: Jan 21, 2017 at 1:35:22 am

Latest Report: Jan 21, 2017 at 12:50 am


Visibility: N/A

Pressure: 30.12 "Hg

Humidity: 82%

Dew Point: 43 °F

Location of KyreniaLocation

Past Weather in Kyrenia — Graph

°F

Kyrenia Temperature Yesterday

Maximum temperature yesterday: 63 °F (at 12:50 pm)
Minimum temperature yesterday: 43 °F (at 3:50 am)
Average temperature yesterday: 51 °F

High & Low Weather Summary for the Past Weeks

 TemperatureHumidityPressure
High64 °F (Jan 19, 1:50 pm)100% (Jan 7, 4:50 am)30.30 "Hg (Jan 7, 4:50 am)
Low34 °F (Jan 10, 2:20 am)38% (Jan 9, 1:20 pm)29.65 "Hg (Jan 8, 1:30 pm)
Average50 °F76%30.04 "Hg
* Reported Jan 6 12:20 am — Jan 21 12:20 am, Kyrenia, Weather by CustomWeather, © 2017

Note: Actual official high and low records may vary slightly from our data, if they occured in-between our weather recording intervals... More about our weather records

Advertising

Kyrenia Weather History for the Previous 24 Hours

Scroll right to see more
 ConditionsComfort  
Time TempWeatherWind HumidityBarometerVisibility
12:20 am
Sat, Jan 21
46 °FPassing clouds.10 mph87%30.12 "HgN/A
11:50 pm
Fri, Jan 20
48 °FPassing clouds.12 mph82%30.12 "HgN/A
11:20 pm48 °FPassing clouds.10 mph82%30.12 "HgN/A
10:50 pm50 °FPassing clouds.10 mph82%30.12 "HgN/A
10:20 pm50 °FPassing clouds.8 mph82%30.12 "HgN/A
9:50 pm50 °FPassing clouds.8 mph82%30.12 "HgN/A
9:20 pm52 °FPassing clouds.8 mph77%30.09 "HgN/A
8:50 pm52 °FPassing clouds.7 mph77%30.09 "HgN/A
8:20 pm54 °FPassing clouds.7 mph72%30.12 "HgN/A
7:50 pm54 °FPassing clouds.5 mph77%30.12 "HgN/A
7:20 pm55 °FPassing clouds.10 mph67%30.09 "HgN/A
6:50 pm54 °FPassing clouds.8 mph72%30.09 "HgN/A
6:20 pm55 °FPassing clouds.9 mph67%30.09 "HgN/A
5:50 pm57 °FScattered clouds.7 mph67%30.09 "HgN/A
5:20 pm59 °FScattered clouds.10 mph59%30.09 "HgN/A
4:50 pm59 °FScattered clouds.10 mph63%30.09 "HgN/A
4:20 pm59 °FBroken clouds.12 mph63%30.09 "HgN/A
3:50 pm59 °FBroken clouds.13 mph63%30.09 "HgN/A
3:20 pm59 °FBroken clouds.14 mph68%30.09 "HgN/A
2:50 pm59 °FBroken clouds.14 mph59%30.09 "HgN/A
2:20 pm61 °FBroken clouds.15 mph63%30.12 "HgN/A
1:50 pm57 °FBroken clouds.16 mph67%30.12 "HgN/A
1:30 pm59 °FSprinkles. Broken clouds.13 mph63%30.12 "Hg5 mi
12:50 pm63 °FBroken clouds.12 mph49%30.15 "HgN/A
12:20 pm61 °FScattered clouds.12 mph55%30.15 "HgN/A
11:50 am61 °FScattered clouds.8 mph55%30.18 "HgN/A
11:20 am59 °FScattered clouds.No wind59%30.18 "HgN/A
10:50 am55 °FPartly sunny.3 mph63%30.18 "HgN/A
10:20 am54 °FPartly sunny.No wind67%30.18 "HgN/A
9:50 am46 °FPartly sunny.6 mph82%30.18 "HgN/A
9:20 am43 °FPartly sunny.6 mph87%30.18 "HgN/A
8:50 am45 °FPartly sunny.8 mph81%30.15 "HgN/A
8:20 am43 °FPartly sunny.10 mph81%30.15 "HgN/A
7:50 am43 °FPassing clouds.9 mph81%30.15 "HgN/A
7:20 am45 °FPartly cloudy.7 mph76%30.15 "HgN/A
6:50 am46 °FPassing clouds.7 mph71%30.15 "HgN/A
6:20 am46 °FPassing clouds.7 mph76%30.15 "HgN/A
5:50 am45 °FPassing clouds.5 mph81%30.15 "HgN/A
5:20 am45 °FPassing clouds.7 mph76%30.15 "HgN/A
4:50 am45 °FPassing clouds.No wind76%30.18 "HgN/A
4:20 am43 °FPassing clouds.3 mph81%30.18 "HgN/A
3:50 am43 °FPassing clouds.8 mph81%30.18 "HgN/A
3:20 am46 °FPassing clouds.8 mph71%30.18 "HgN/A
2:50 am46 °FPassing clouds.8 mph71%30.18 "HgN/A
2:20 am46 °FPassing clouds.8 mph71%30.18 "HgN/A
1:50 am45 °FPassing clouds.10 mph76%30.18 "HgN/A
1:20 am46 °FPassing clouds.12 mph76%30.18 "HgN/A
Weather by CustomWeather, © 2017

See weather overviewHow to use our weather pages